Hourly Data Report for September 19, 2019

All times are specified in Local Standard Time (LST). Add 1 hour to adjust for Daylight Saving Time where and when it is observed.

EUREKA CLIMATE
NUNAVUT
Current Station Operator: ECCC - MSC

79°59'21.000" N
85°56'02.000" W
10.00 m
2401199
71613
NEK

Download Data

Hourly Data (September 2019)
Hourly Data Report for September 19, 2019
TIME Temp Definition
°C
Dew Point Definition
°C
Rel Hum Definition
%
Wind Dir Definition
10's deg

Wind Spd Definition
km/h
Visibility Definition
km
Stn Press Definition
kPa
Hmdx Definition


Wind Chill Definition


Weather Definition


00:00 -7.0 -7.5 96 36 7   101.73   -11 LegendNANA
01:00 -4.9 -5.3 97 29 13   101.70   -10 LegendNANA
02:00 -8.6 -9.2 95 2 11   101.69   -14 LegendNANA
03:00 -9.0 -9.7 95 5 7   101.69   -13 LegendNANA
04:00 -9.1 -9.6 96 4 7   101.68   -13 LegendNANA
05:00 -8.7 -8.9 99 3 7   101.67   -13 LegendNANA
06:00 -9.9 -10.4 96 4 7   101.65   -14 LegendNANA
07:00 -9.4 -9.8 97 3 9   101.62   -14 LegendNANA
08:00 -9.0 -9.3 97 2 8   101.58   -13 LegendNANA
09:00 -8.5 -8.9 97 3 5   101.57   -11 LegendNANA
10:00 -7.5 -7.9 97 3 3   101.51   -9 LegendNANA
11:00 -6.5 -6.7 98 8 1   101.47   -7 LegendNANA
12:00 -5.8 -6.0 98 2 1   101.45   -6 LegendNANA
13:00 -5.1 -5.4 98 28 8   101.41   -9 LegendNANA
14:00 -5.3 -5.7 97 29 13   101.39   -10 LegendNANA
15:00 -5.6 -6.0 97 29 14   101.35   -11 LegendNANA
16:00 -5.7 -6.0 97 29 13   101.34   -11 LegendNANA
17:00 -6.2 -6.4 98 30 11   101.31   -11 LegendNANA
18:00 -6.3 -6.5 99 31 7   101.29   -10 LegendNANA
19:00 -6.2 -6.5 98 31 8   101.25   -10 LegendNANA
20:00 -8.0 -8.6 96 1 9   101.23   -13 LegendNANA
21:00 -7.7 -8.1 97 36 8   101.20   -12 LegendNANA
22:00 -9.3 -10.0 95 1 8   101.17   -14 LegendNANA
23:00 -7.6 -8.0 97 1 8   101.15   -12 LegendNANA

Notes on Data Quality.

Legend

  • E = Estimated
  • M = Missing
  • NA = Not Available
Date modified: